Back to catalog

LAGEOS 1 AKM

AliveMEO
NORAD 8822·ROCKET BODY·🇺🇸 United States

Launched May 4, 1976 from Vandenberg Space Force Base

Loading…

Next Passes (next 24 hours)

TLE

FreshSource: Space-Track

Epoch: Sep 8, 2026, 08:49 UTC

1 08822U 76039C   26251.36743995 -.00000001  00000-0  00000-0 0  9999
2 08822 109.8181 212.5778 0045515 279.0661 238.5087  6.38871772174467

Track LAGEOS 1 AKM in real time with AllMySat

Download on the App Store